Weather History for Shirley, NY

Change the Weather History Date:

Thursday, July 18, 2013

  Actual Average (KISP) Record (KISP)
Temperature  
Mean Temperature 87 °F 74 °F  
Max Temperature 96 °F 82 °F 98 °F (1999)
Min Temperature 78 °F 66 °F 61 °F (1989)
Degree Days  
Heating Degree Days 0 0  
Month to date heating degree days 0  
Since 1 June heating degree days 38  
Since 1 July heating degree days 0  
Cooling Degree Days 22 9  
Month to date cooling degree days 155  
Year to date cooling degree days 319  
Since 1 June cooling degree days 295  
Growing Degree Days 37 (Base 50)    
Moisture  
Dew Point 73 °F    
Average Humidity 68    
Maximum Humidity 85    
Minimum Humidity 46    
Precipitation  
Precipitation 0.00 in 0.12 in 3.34 in (2007)
Month to date precipitation 1.90  
Year to date precipitation 25.63  
Snow  
Snow 0.00 in 0.00 in - ()
Month to date snowfall 0.0  
Since 1 July snowfall 0.0  
Snow Depth -    
Sea Level Pressure  
Sea Level Pressure 30.02 in    
Wind  
Wind Speed 6 mph (SW)    
Max Wind Speed 10 mph    
Max Gust Speed -    
Visibility 9 miles    
Events      
T = Trace of Precipitation, MM = Missing Value Source: NWS Daily Summary

Daily Weather History Graph

Daily Weather History Graph

Search for Another Location

Airport:

Trip Planner

Search our weather history database for the weather conditions in past years. The results will help you decide how hot, cold, wet, or windy it might be!

Date:

Astronomy

Jul. 18, 2013 Rise Set
Actual Time 5:35 AM EDT 8:19 PM EDT
Civil Twilight 5:03 AM EDT 8:51 PM EDT
Nautical Twilight 4:22 AM EDT 9:31 PM EDT
Astronomical Twilight 3:36 AM EDT 10:17 PM EDT
Moon 4:13 PM EDT (7/18) 1:23 AM EDT (7/18)
Length of Visible Light 15h 48m
Length of Day
14h 44m
Waxing Gibbous, 77% of the Moon is Illuminated
Jul 18
Waxing Gibbous
Jul 22
Full
Jul 29
Last Quarter
Aug 6
New
Aug 14
First Quarter

Hourly Weather History & Observations

Time (EDT) Temp. Heat Index Dew Point Humidity Pressure Visibility Wind Dir Wind Speed Gust Speed Precip Events Conditions
12:56 AM 80.1 °F 83.6 °F 71.1 °F 74% 30.07 in 10.0 mi SSW 6.9 mph - N/A   Clear
1:56 AM 80.1 °F 83.8 °F 72.0 °F 76% 30.06 in 10.0 mi SSW 4.6 mph - N/A   Clear
2:56 AM 79.0 °F - 72.0 °F 79% 30.04 in 10.0 mi SSW 5.8 mph - N/A   Scattered Clouds
3:56 AM 78.1 °F - 72.0 °F 81% 30.03 in 10.0 mi SW 3.5 mph - N/A   Clear
4:56 AM 78.1 °F - 73.0 °F 84% 30.03 in 9.0 mi SW 4.6 mph - N/A   Mostly Cloudy
5:56 AM 78.1 °F - 72.0 °F 81% 30.03 in 7.0 mi SW 3.5 mph - N/A   Mostly Cloudy
6:56 AM 80.1 °F 83.8 °F 72.0 °F 76% 30.04 in 8.0 mi Calm Calm - N/A   Partly Cloudy
7:56 AM 84.0 °F 90.2 °F 73.0 °F 69% 30.04 in 9.0 mi West 3.5 mph - N/A   Clear
8:56 AM 87.1 °F 94.5 °F 73.0 °F 63% 30.04 in 10.0 mi NW 8.1 mph - N/A   Clear
9:56 AM 90.0 °F 99.0 °F 73.9 °F 59% 30.04 in 10.0 mi NW 5.8 mph - N/A   Clear
10:56 AM 93.0 °F 103.2 °F 73.9 °F 54% 30.03 in 10.0 mi North 4.6 mph - N/A   Clear
11:56 AM 95.0 °F 104.5 °F 73.0 °F 49% 30.03 in 10.0 mi NNW 4.6 mph - N/A   Clear
12:56 PM 96.1 °F 104.9 °F 72.0 °F 46% 30.03 in 10.0 mi SW 5.8 mph - N/A   Clear
1:56 PM 93.0 °F 104.6 °F 75.0 °F 56% 30.01 in 9.0 mi South 9.2 mph - N/A   Scattered Clouds
2:56 PM 93.0 °F 103.2 °F 73.9 °F 54% 30.00 in 10.0 mi SSW 10.4 mph - N/A   Clear
3:56 PM 93.9 °F 103.4 °F 73.0 °F 51% 29.99 in 10.0 mi SW 9.2 mph - N/A   Clear
4:56 PM 93.0 °F 103.2 °F 73.9 °F 54% 29.99 in 9.0 mi South 9.2 mph - N/A   Clear
5:56 PM 89.1 °F 98.0 °F 73.9 °F 61% 29.98 in 9.0 mi SSW 9.2 mph - N/A   Clear
6:56 PM 88.0 °F 96.5 °F 73.9 °F 63% 29.99 in 10.0 mi SW 6.9 mph - N/A   Clear
7:56 PM 84.9 °F 92.1 °F 73.9 °F 69% 29.99 in 8.0 mi SSW 5.8 mph - N/A   Clear
8:56 PM 82.9 °F 90.2 °F 75.0 °F 77% 29.99 in 7.0 mi SSW 6.9 mph - N/A   Clear
9:56 PM 82.0 °F 88.6 °F 75.0 °F 79% 29.99 in 7.0 mi SSW 4.6 mph - N/A   Clear
10:56 PM 82.0 °F 89.4 °F 75.9 °F 82% 29.99 in 6.0 mi SSW 4.6 mph - N/A   Haze
11:56 PM 81.0 °F 87.3 °F 75.9 °F 85% 29.98 in 6.0 mi SSW 4.6 mph - N/A   Haze